Regional Weather Roundup
Issued by NWS

Home | Current Version | Previous Version | Graphics & Text | Print | Product List | Glossary On
Versions: 1 2 3 4 5 6 7 8 9 10 11 12 13 14 15 16 17 18 19 20 21 22 23 24 25 26 27 28 29 30 31 32 33 34 35 36 37 38 39 40 41 42 43 44 45 46 47 48 49 50
000
ASUS43 KLOT 110008
RWRIL

ILLINOIS REGIONAL WEATHER ROUNDUP
NATIONAL WEATHER SERVICE CHICAGO/ROMEOVILLE IL
600 PM CST SUN DEC 10 2017

NOTE: "FAIR" INDICATES FEW OR NO CLOUDS BELOW 12,000 FEET WITH NO
SIGNIFICANT WEATHER AND/OR OBSTRUCTIONS TO VISIBILITY.

* THESE STATIONS ARE NOT UNDER NWS QUALITY CONTROL. THEY ALSO MAY NOT
  REPORT WEATHER SUCH AS PRECIPITATION OR FOG.

ILZ001-002-007-009-015-016-024-110100-
NORTHWEST ILLINOIS

CITY           SKY/WX    TMP DP  RH WIND       PRES   REMARKS
MOLINE         CLOUDY    33  23  66 NW8       30.07  WCI  26
6HR MIN TEMP:  33; 6HR MAX TEMP:  41;

STERLING*      PTCLDY    32  23  69 NW10      30.07R WCI  24
SAVANNA*       CLOUDY    29  22  73 NW6       30.08R WCI  23
$$

ILZ003-004-008-010-011-017-018-110100-
NORTH CENTRAL ILLINOIS

CITY           SKY/WX    TMP DP  RH WIND       PRES   REMARKS
ROCKFORD       CLOUDY    30  20  66 NW8       30.07R WCI  22
6HR MIN TEMP:  30; 6HR MAX TEMP:  33;

FREEPORT*      CLOUDY    29  20  70 NW7       30.08R WCI  22
ROCHELLE*      CLOUDY    30  21  69 NW7       30.05R WCI  23
DE KALB*       MOCLDY    29  20  69 NW6       30.04R WCI  23
PERU*          CLOUDY    31  21  66 NW7       30.06R WCI  24
$$

ILZ005-006-012>014-019>023-110100-
NORTHEAST ILLINOIS

CITY           SKY/WX    TMP DP  RH WIND       PRES   REMARKS
CHICAGO-OHARE  CLOUDY    31  19  61 NW12      30.03R WCI  22
6HR MIN TEMP:  30; 6HR MAX TEMP:  35;

CHICAGO-MIDWAY MOCLDY    31  21  66 NW9       30.03R WCI  23
6HR MIN TEMP:  31; 6HR MAX TEMP:  36;

AURORA         PTCLDY    29  21  72 NW7       30.04R WCI  22
6HR MIN TEMP:  29; 6HR MAX TEMP:  36;

LANSING*       PTCLDY    31  23  72 NW6       30.03R WCI  25
WAUKEGAN       MOCLDY    26  19  74 NW7       30.03R WCI  18
6HR MIN TEMP:  26; 6HR MAX TEMP:  30;

DUPAGE AIRPORT CLOUDY    30  21  69 N10       30.02R WCI  21
6HR MIN TEMP:  30; 6HR MAX TEMP:  34;

KANKAKEE*      CLOUDY    32  21  63 NW12      30.04R WCI  23
WHEELING       PTCLDY    28  20  71 NW6       30.05R WCI  22
6HR MIN TEMP:  28; 6HR MAX TEMP:  33;

MORRIS*        CLOUDY    31  21  66 NW9       30.04R WCI  23
ROMEOVILLE*    CLOUDY    30  22  71 NW3       30.03R
NORTHERLY ISL    N/A     31  20  63 NW12        N/A  WCI  22
$$

LMZ740>746-110100-
SOUTHERN LAKE MICHIGAN

STATION/POSITION SKY/WX   TEMP    WIND        PRES    VSBY  WAVE
                          AIR SEA DIR/SP/G                  HT/PER
                          (F)     (DEG/KT/KT) (MB)    (MI)  (FT/S)
HARRISON CRIB              31     320/ 18/ 20   N/A
BURNHAM HARBOR             31     270/  6/ 13   N/A
CALUMET HARBOR             31     300/  7/ 12 1015.8R
BURNS HARBOR               33     320/ 15/ 18 1016.6R
MICHIGAN CITY              32     310/ 20/ 21   N/A
$$

ILZ025>027-034>036-040-047-049-050-058-095>099-110100-
WEST-CENTRAL ILLINOIS

CITY           SKY/WX    TMP DP  RH WIND       PRES   REMARKS
QUINCY         CLEAR     37  24  59 NW5       30.09R WCI  33
GALESBURG*     CLEAR     30  24  77 NW3       30.08R
MACOMB*        CLEAR     29  21  73 NW9       30.10R WCI  21
JACKSONVILLE*  CLOUDY    33  22  64 W3        30.09R
PITTSFIELD*    CLOUDY    38  24  58 CALM      30.09R
$$

ILZ028>032-037-038-041>044-048-051>054-059>061-110100-
CENTRAL ILLINOIS

CITY           SKY/WX    TMP DP  RH WIND       PRES   REMARKS
PONTIAC        PTCLDY    32  24  70 NW10      30.06R WCI  24
BLOOMINGTON    CLEAR     32  23  69 NW10      30.06R WCI  24
DECATUR        CLOUDY    36  24  62 NW8       30.06R WCI  30
PEORIA         CLEAR     33  23  66 NW5       30.07R WCI  29
6HR MIN TEMP:  33; 6HR MAX TEMP:  41;

LACON*         CLEAR     32  23  68 N6        30.07R WCI  26
LINCOLN*       CLEAR     35  26  69 NW3       30.06S
SPRINGFIELD    CLOUDY    36  23  59 NW5       30.08R WCI  32
6HR MIN TEMP:  36; 6HR MAX TEMP:  45;

TAYLORVILLE    CLOUDY    35  23  60 W7        30.08R WCI  30
6HR MIN TEMP:  35; 6HR MAX TEMP:  44;

$$

ILZ033-039-045-046-055>057-062-063-110100-
EAST-CENTRAL ILLINOIS

CITY           SKY/WX    TMP DP  RH WIND       PRES   REMARKS
CHAMPAIGN      CLEAR     30  21  69 W7        30.04R WCI  23
DANVILLE*      CLEAR     32  22  67 W8        30.00R WCI  25
RANTOUL*       CLEAR     34  24  67 NW9       30.03R WCI  27
MATTOON        CLOUDY    31  24  75 W8        30.05R WCI  23
PARIS*         CLEAR     30  22  73 W8        30.05R WCI  23
$$

ILZ079-100>102-110100-
SOUTHWEST ILLINOIS

CITY           SKY/WX    TMP DP  RH WIND       PRES   REMARKS
ALTON          CLEAR     37  25  60 W12       30.08R WCI  30
BELLEVILLE     CLOUDY    44  24  45 NW5       30.07R
CAHOKIA*       CLOUDY    44  24  45 NW7       30.08R
$$

ILZ064>066-069>071-074>076-080>082-084>086-088>090-092>094-110100-
SOUTH-CENTRAL ILLINOIS

CITY           SKY/WX    TMP DP  RH WIND       PRES   REMARKS
CARBONDALE     CLOUDY    41  27  57 SW9       30.09R
6HR MIN TEMP:  40; 6HR MAX TEMP:  50;

CAIRO*         CLEAR     46  33  61 SW10      30.11R
EFFINGHAM*     CLOUDY    35  27  71 W7        30.09R WCI  29
MARION         CLEAR     45  28  53 SW12      30.09R
MT. VERNON     CLOUDY    34  26  72 CALM      30.08R
CENTRALIA*     CLOUDY    42  27  54 NW5       30.07R
SALEM*         CLOUDY    42  25  51 W5        30.08R
METROPOLIS*    CLEAR     44  31  58 SW6       30.10R
$$

ILZ067-068-072-073-078-083-087-091-110100-
SOUTHEAST ILLINOIS

CITY           SKY/WX    TMP DP  RH WIND       PRES   REMARKS
LAWRENCEVILLE  CLOUDY    38  24  57 W6        30.06R WCI  33
FLORA*         PTCLDY    42  26  52 W5        30.07R
FAIRFIELD*     CLOUDY    35  25  65 CALM      30.07R
HARRISBURG*    CLOUDY    43  30  61 SW6       30.08R
ROBINSON*      CLOUDY    34  24  66 W10       30.06S WCI  26
CARMI*         CLOUDY    39  27  62 SW7       30.07R WCI  34
$$

ABBREVIATIONS USED IN REMARKS
   TC - TEMPERATURE IN CELSIUS
  WCI - WIND CHILL INDEX
   HX - HEAT INDEX
  VSB - VISIBILITY
$$




USA.gov is the U.S. government's official web portal to all federal, state and local government web resources and services.